Time,TemperatureF,DewpointF,PressureIn,WindDirection,WindDirectionDegrees,WindSpeedMPH,WindSpeedGustMPH,Humidity,HourlyPrecipIn,Conditions,Clouds,dailyrainin,SoftwareType,DateUTC
2013-07-26 00:10:00,70.0,58.9,30.07,SSE,160,5.0,5.0,68,0.00,CLR,CLR,0.00,WeatherDisplay:10.37,2013-07-26 05:10:00,
2013-07-26 00:40:00,68.0,58.6,30.07,SSE,160,0.0,0.0,72,0.00,CLR,CLR,0.00,WeatherDisplay:10.37,2013-07-26 05:40:00,
2013-07-26 01:10:00,68.0,58.6,30.07,SSE,160,0.0,0.0,72,0.00,CLR,CLR,0.00,WeatherDisplay:10.37,2013-07-26 06:10:00,
2013-07-26 01:40:00,68.0,59.8,30.06,SSW,200,3.0,3.0,75,0.00,CLR,CLR,0.00,WeatherDisplay:10.37,2013-07-26 06:40:00,
2013-07-26 02:10:00,68.0,59.8,30.06,SSW,200,3.0,3.0,75,0.00,CLR,CLR,0.00,WeatherDisplay:10.37,2013-07-26 07:10:00,
2013-07-26 02:40:00,68.0,58.6,30.04,SSE,160,6.0,6.0,72,0.00,CLR,CLR,0.00,WeatherDisplay:10.37,2013-07-26 07:40:00,
2013-07-26 03:10:00,68.0,58.6,30.04,SSE,160,6.0,6.0,72,0.00,CLR,CLR,0.00,WeatherDisplay:10.37,2013-07-26 08:10:00,
2013-07-26 03:40:00,66.0,57.9,30.02,SSW,200,5.0,5.0,75,0.00,CLR,CLR,0.00,WeatherDisplay:10.37,2013-07-26 08:40:00,
2013-07-26 04:10:00,66.0,57.9,30.02,SSW,200,5.0,5.0,75,0.00,CLR,CLR,0.00,WeatherDisplay:10.37,2013-07-26 09:10:00,
2013-07-26 04:40:00,66.0,59.0,30.02,SSW,210,6.0,6.0,78,0.00,BKN,BKN,0.00,WeatherDisplay:10.37,2013-07-26 09:40:00,
2013-07-26 05:10:00,66.0,59.0,30.02,SSW,210,6.0,6.0,78,0.00,BKN,BKN,0.00,WeatherDisplay:10.37,2013-07-26 10:10:00,
2013-07-26 05:40:00,66.0,59.0,30.03,SW,220,5.0,5.0,78,0.00,OVC,OVC,0.00,WeatherDisplay:10.37,2013-07-26 10:40:00,
2013-07-26 06:10:00,66.0,59.0,30.03,SW,220,5.0,5.0,78,0.00,OVC,OVC,0.00,WeatherDisplay:10.37,2013-07-26 11:10:00,
2013-07-26 06:40:00,64.9,59.0,30.02,South,190,5.0,5.0,81,0.00,-RA,-RA,0.00,WeatherDisplay:10.37,2013-07-26 11:40:00,
2013-07-26 07:10:00,64.9,59.0,30.02,South,190,5.0,5.0,81,0.00,-RA,-RA,0.00,WeatherDisplay:10.37,2013-07-26 12:10:00,
2013-07-26 07:40:00,66.0,57.9,30.02,South,190,7.0,7.0,75,0.00,OVC,OVC,0.00,WeatherDisplay:10.37,2013-07-26 12:40:00,
2013-07-26 08:10:00,66.0,57.9,30.02,South,190,7.0,7.0,75,0.00,OVC,OVC,0.00,WeatherDisplay:10.37,2013-07-26 13:10:00,
2013-07-26 08:40:00,66.0,57.9,30.03,SSW,200,10.0,10.0,75,0.00,OVC,OVC,0.00,WeatherDisplay:10.37,2013-07-26 13:40:00,
2013-07-26 09:10:00,66.0,57.9,30.03,SSW,200,10.0,10.0,75,0.00,OVC,OVC,0.00,WeatherDisplay:10.37,2013-07-26 14:10:00,
2013-07-26 09:40:00,64.9,60.0,30.05,South,180,7.0,7.0,84,0.00,-RA,-RA,0.04,WeatherDisplay:10.37,2013-07-26 14:40:00,
2013-07-26 10:10:00,64.9,60.0,30.05,South,180,7.0,7.0,84,0.04,-RA,-RA,0.08,WeatherDisplay:10.37,2013-07-26 15:10:00,
2013-07-26 10:40:00,64.0,60.7,30.05,SW,220,7.0,10.0,89,0.00,OVC,OVC,0.08,WeatherDisplay:10.37,2013-07-26 15:40:00,
2013-07-26 11:10:00,64.0,62.0,30.05,SSW,210,7.0,7.0,93,0.18,OVC,OVC,0.26,WeatherDisplay:10.37,2013-07-26 16:10:00,
2013-07-26 11:40:00,64.0,62.0,30.02,SSE,150,7.0,7.0,93,0.00,-RA,-RA,0.26,WeatherDisplay:10.37,2013-07-26 16:40:00,
2013-07-26 12:10:00,64.0,62.0,30.02,SSE,150,7.0,7.0,93,0.01,-RA,-RA,0.27,WeatherDisplay:10.37,2013-07-26 17:10:00,
2013-07-26 12:40:00,69.1,64.7,30.01,South,190,9.0,10.0,86,0.00,BKN,BKN,0.27,WeatherDisplay:10.37,2013-07-26 17:40:00,
2013-07-26 13:10:00,69.1,64.7,30.01,South,190,9.0,9.0,86,0.00,BKN,BKN,0.27,WeatherDisplay:10.37,2013-07-26 18:10:00,
2013-07-26 13:40:00,69.1,63.7,29.99,South,180,13.0,13.0,83,0.00,OVC,OVC,0.27,WeatherDisplay:10.37,2013-07-26 18:40:00,
2013-07-26 14:10:00,69.1,63.7,29.99,South,180,13.0,13.0,83,0.00,OVC,OVC,0.27,WeatherDisplay:10.37,2013-07-26 19:10:00,
2013-07-26 14:40:00,69.1,64.7,29.98,SSW,210,9.0,13.0,86,0.00,-RA,-RA,0.27,WeatherDisplay:10.37,2013-07-26 19:40:00,
2013-07-26 15:10:00,70.0,64.9,29.98,SSW,210,9.0,9.0,84,0.00,OVC,OVC,0.27,WeatherDisplay:10.37,2013-07-26 20:10:00,
2013-07-26 15:40:00,70.0,65.9,29.98,SSW,210,8.0,8.0,87,0.00,OVC,OVC,0.27,WeatherDisplay:10.37,2013-07-26 20:40:00,
2013-07-26 16:10:00,70.0,65.9,29.98,SSW,210,8.0,8.0,87,0.00,OVC,OVC,0.27,WeatherDisplay:10.37,2013-07-26 21:10:00,
2013-07-26 16:40:00,71.1,66.0,29.95,SSW,210,9.0,9.0,84,0.00,OVC,OVC,0.27,WeatherDisplay:10.37,2013-07-26 21:40:00,
2013-07-26 17:10:00,71.1,66.0,29.95,SSW,210,9.0,9.0,84,0.00,OVC,OVC,0.27,WeatherDisplay:10.37,2013-07-26 22:10:00,
2013-07-26 17:40:00,72.0,66.9,29.94,SSW,210,13.0,13.0,84,0.00,OVC,OVC,0.27,WeatherDisplay:10.37,2013-07-26 22:40:00,
2013-07-26 18:10:00,73.0,66.9,29.94,SSW,210,9.0,10.0,81,0.00,BKN,BKN,0.27,WeatherDisplay:10.37,2013-07-26 23:10:00,
2013-07-26 18:40:00,66.9,61.9,29.95,WNW,290,6.0,10.0,84,0.18,-RA,-RA,0.45,WeatherDisplay:10.37,2013-07-26 23:40:00,
2013-07-26 19:10:00,66.0,62.0,29.95,WNW,290,7.0,7.0,87,0.19,-RA,-RA,0.64,WeatherDisplay:10.37,2013-07-27 00:10:00,
2013-07-26 19:40:00,66.0,62.7,29.93,West,280,5.0,5.0,89,0.00,-RA,-RA,0.64,WeatherDisplay:10.37,2013-07-27 00:40:00,
2013-07-26 20:10:00,66.0,62.7,29.93,West,280,5.0,5.0,89,0.20,-RA,-RA,0.84,WeatherDisplay:10.37,2013-07-27 01:10:00,
2013-07-26 20:40:00,68.0,64.0,29.95,SW,230,3.0,3.0,87,0.00,SCT,SCT,0.84,WeatherDisplay:10.37,2013-07-27 01:40:00,
2013-07-26 21:10:00,68.0,64.0,29.95,SW,230,3.0,3.0,87,0.00,SCT,SCT,0.84,WeatherDisplay:10.37,2013-07-27 02:10:00,
2013-07-26 21:40:00,66.9,62.9,29.95,WNW,300,5.0,5.0,87,0.00,CLR,CLR,0.84,WeatherDisplay:10.37,2013-07-27 02:40:00,
2013-07-26 22:10:00,66.9,62.9,29.95,WNW,300,5.0,5.0,87,0.00,CLR,CLR,0.84,WeatherDisplay:10.37,2013-07-27 03:10:00,
2013-07-26 22:40:00,64.9,60.0,29.97,NW,310,5.0,5.0,84,0.00,CLR,CLR,0.84,WeatherDisplay:10.37,2013-07-27 03:40:00,
2013-07-26 23:10:00,64.9,60.0,29.97,NW,310,5.0,5.0,84,0.00,CLR,CLR,0.84,WeatherDisplay:10.37,2013-07-27 04:10:00,
2013-07-26 23:40:00,63.0,57.7,29.97,NW,310,5.0,5.0,83,0.00,CLR,CLR,0.84,WeatherDisplay:10.37,2013-07-27 04:40:00,